Location: Krakow
(50.0830°N, 19.9170°E)
Time: 07:52:52
(UTC+02:00)

Tiros 1 despin weight - Pass Details

Date: 18 March 2026
Orbit: 555 x 592 km, 48.2° (Epoch: 18 April)

Event Time Altitude Azimuth Distance (km) Brightness Sun altitude
Rises 09:13:38 0° 280° (W) 2,800 ? 29.3°
Reaches altitude 10° 09:16:15 10° 266° (W) 1,891 ? 29.6°
Maximum altitude 09:19:43 24° 213° (SSW) 1,215 ? 29.9°
Drops below altitude 10° 09:23:08 10° 159° (SSE) 1,864 ? 30.3°
Sets 09:25:42 0° 145° (SE) 2,750 ? 30.6°
